�v������,1F�E2F����(kWh),3F������(kWh)
2022/4/1 0:00,0,0
2022/4/1 0:10,0,0
2022/4/1 0:20,0,0
2022/4/1 0:30,0,0
2022/4/1 0:40,0,0
2022/4/1 0:50,0,0
2022/4/1 1:00,0,0
2022/4/1 1:10,0,0
2022/4/1 1:20,0,0
2022/4/1 1:30,0,0
2022/4/1 1:40,0,0
2022/4/1 1:50,0,0
2022/4/1 2:00,0,0
2022/4/1 2:10,0,0
2022/4/1 2:20,0,0
2022/4/1 2:30,0,0
2022/4/1 2:40,0,0
2022/4/1 2:50,0,0
2022/4/1 3:00,0,0
2022/4/1 3:10,0,0
2022/4/1 3:20,0,0
2022/4/1 3:30,0,0
2022/4/1 3:40,0,0
2022/4/1 3:50,0,0
2022/4/1 4:00,0.21,0
2022/4/1 4:10,0.3,0
2022/4/1 4:20,0.29,0
2022/4/1 4:30,0.29,0
2022/4/1 4:40,0.28,0
2022/4/1 4:50,0.28,0
2022/4/1 5:00,0.04,0.1
2022/4/1 5:10,0,0.1
2022/4/1 5:20,0,0.04
2022/4/1 5:30,0,0
2022/4/1 5:40,0,0
2022/4/1 5:50,0,0
2022/4/1 6:00,0,0
2022/4/1 6:10,0,0
2022/4/1 6:20,0,0
2022/4/1 6:30,0,0
2022/4/1 6:40,0,0
2022/4/1 6:50,0,0
2022/4/1 7:00,0,0
2022/4/1 7:10,0,0
2022/4/1 7:20,0,0.05
2022/4/1 7:30,0,0
2022/4/1 7:40,0,0
2022/4/1 7:50,0.19,0
2022/4/1 8:00,0.27,0
2022/4/1 8:10,0.26,0
2022/4/1 8:20,0.26,0
2022/4/1 8:30,0.25,0
2022/4/1 8:40,0.24,0
2022/4/1 8:50,0.06,0
2022/4/1 9:00,0.01,0
2022/4/1 9:10,0,0
2022/4/1 9:20,0.01,0
2022/4/1 9:30,0.01,0
2022/4/1 9:40,0,0.05
2022/4/1 9:50,0.01,0
2022/4/1 10:00,0,0
2022/4/1 10:10,0.01,0
2022/4/1 10:20,0,0.08
2022/4/1 10:30,0.01,0.05
2022/4/1 10:40,0,0
2022/4/1 10:50,0.01,0
2022/4/1 11:00,0,0
2022/4/1 11:10,0.01,0
2022/4/1 11:20,0.01,0
2022/4/1 11:30,0,0.04
2022/4/1 11:40,0.01,0.01
2022/4/1 11:50,0,0
2022/4/1 12:00,0.01,0
2022/4/1 12:10,0,0.03
2022/4/1 12:20,0.01,0.06
2022/4/1 12:30,0,0
2022/4/1 12:40,0.01,0
2022/4/1 12:50,0,0
2022/4/1 13:00,0.01,0
2022/4/1 13:10,0.01,0
2022/4/1 13:20,0,0.01
2022/4/1 13:30,0.01,0.04
2022/4/1 13:40,0,0
2022/4/1 13:50,0.01,0
2022/4/1 14:00,0,0
2022/4/1 14:10,0.01,0
2022/4/1 14:20,0,0
2022/4/1 14:30,0.01,0.02
2022/4/1 14:40,0,0.03
2022/4/1 14:50,0.01,0
2022/4/1 15:00,0,0
2022/4/1 15:10,0.01,0
2022/4/1 15:20,0,0
2022/4/1 15:30,0,0
2022/4/1 15:40,0,0
2022/4/1 15:50,0,0
2022/4/1 16:00,0,0
2022/4/1 16:10,0,0
2022/4/1 16:20,0,0.06
2022/4/1 16:30,0,0
2022/4/1 16:40,0,0
2022/4/1 16:50,0,0
2022/4/1 17:00,0,0
2022/4/1 17:10,0,0
2022/4/1 17:20,0,0
2022/4/1 17:30,0.01,0
2022/4/1 17:40,0,0
2022/4/1 17:50,0,0
2022/4/1 18:00,0,0
2022/4/1 18:10,0,0
2022/4/1 18:20,0,0
2022/4/1 18:30,0,0
2022/4/1 18:40,0,0
2022/4/1 18:50,0,0
2022/4/1 19:00,0,0
2022/4/1 19:10,0,0
2022/4/1 19:20,0.01,0
2022/4/1 19:30,0,0
2022/4/1 19:40,0,0
2022/4/1 19:50,0,0
2022/4/1 20:00,0,0
2022/4/1 20:10,0,0
2022/4/1 20:20,0,0
2022/4/1 20:30,0,0
2022/4/1 20:40,0,0
2022/4/1 20:50,0,0
2022/4/1 21:00,0,0
2022/4/1 21:10,0,0
2022/4/1 21:20,0,0
2022/4/1 21:30,0,0
2022/4/1 21:40,0,0
2022/4/1 21:50,0,0
2022/4/1 22:00,0,0
2022/4/1 22:10,0,0
2022/4/1 22:20,0,0
2022/4/1 22:30,0,0
2022/4/1 22:40,0,0
2022/4/1 22:50,0,0
2022/4/1 23:00,0,0
2022/4/1 23:10,0,0
2022/4/1 23:20,0,0
2022/4/1 23:30,0,0
2022/4/1 23:40,0,0
2022/4/1 23:50,0,0
2022/4/2 0:00,0,0
2022/4/2 0:10,0,0
2022/4/2 0:20,0,0
2022/4/2 0:30,0,0
2022/4/2 0:40,0,0
2022/4/2 0:50,0,0
2022/4/2 1:00,0,0
2022/4/2 1:10,0,0
2022/4/2 1:20,0,0
2022/4/2 1:30,0,0
2022/4/2 1:40,0,0
2022/4/2 1:50,0,0
2022/4/2 2:00,0,0
2022/4/2 2:10,0,0
2022/4/2 2:20,0,0
2022/4/2 2:30,0,0
2022/4/2 2:40,0,0
2022/4/2 2:50,0,0
2022/4/2 3:00,0,0
2022/4/2 3:10,0,0
2022/4/2 3:20,0,0
2022/4/2 3:30,0,0
2022/4/2 3:40,0,0
2022/4/2 3:50,0,0
2022/4/2 4:00,0,0
2022/4/2 4:10,0,0
2022/4/2 4:20,0,0
2022/4/2 4:30,0,0
2022/4/2 4:40,0,0
2022/4/2 4:50,0,0
2022/4/2 5:00,0,0.1
2022/4/2 5:10,0,0.1
2022/4/2 5:20,0,0.07
2022/4/2 5:30,0,0
2022/4/2 5:40,0,0
2022/4/2 5:50,0,0
2022/4/2 6:00,0,0
2022/4/2 6:10,0,0
2022/4/2 6:20,0,0
2022/4/2 6:30,0,0
2022/4/2 6:40,0,0
2022/4/2 6:50,0.13,0
2022/4/2 7:00,0.29,0
2022/4/2 7:10,0.26,0
2022/4/2 7:20,0.25,0
2022/4/2 7:30,0.22,0.06
2022/4/2 7:40,0.01,0
2022/4/2 7:50,0,0
2022/4/2 8:00,0,0
2022/4/2 8:10,0,0
2022/4/2 8:20,0,0
2022/4/2 8:30,0,0
2022/4/2 8:40,0,0
2022/4/2 8:50,0,0
2022/4/2 9:00,0,0
2022/4/2 9:10,0,0
2022/4/2 9:20,0,0
2022/4/2 9:30,0,0
2022/4/2 9:40,0,0
2022/4/2 9:50,0,0.05
2022/4/2 10:00,0,0
2022/4/2 10:10,0,0
2022/4/2 10:20,0,0
2022/4/2 10:30,0,0
2022/4/2 10:40,0.01,0
2022/4/2 10:50,0,0
2022/4/2 11:00,0.01,0
2022/4/2 11:10,0,0
2022/4/2 11:20,0.01,0
2022/4/2 11:30,0,0
2022/4/2 11:40,0.01,0
2022/4/2 11:50,0.01,0
2022/4/2 12:00,0,0
2022/4/2 12:10,0.01,0.11
2022/4/2 12:20,0,0.03
2022/4/2 12:30,0.01,0
2022/4/2 12:40,0,0
2022/4/2 12:50,0.01,0
2022/4/2 13:00,0,0.01
2022/4/2 13:10,0.01,0.05
2022/4/2 13:20,0.01,0
2022/4/2 13:30,0,0
2022/4/2 13:40,0.01,0
2022/4/2 13:50,0,0
2022/4/2 14:00,0.01,0
2022/4/2 14:10,0,0
2022/4/2 14:20,0.01,0
2022/4/2 14:30,0,0
2022/4/2 14:40,0.01,0.03
2022/4/2 14:50,0,0.03
2022/4/2 15:00,0,0
2022/4/2 15:10,0,0
2022/4/2 15:20,0,0
2022/4/2 15:30,0,0
2022/4/2 15:40,0,0
2022/4/2 15:50,0,0
2022/4/2 16:00,0,0
2022/4/2 16:10,0,0
2022/4/2 16:20,0,0
2022/4/2 16:30,0,0
2022/4/2 16:40,0,0
2022/4/2 16:50,0,0.05
2022/4/2 17:00,0,0
2022/4/2 17:10,0,0
2022/4/2 17:20,0,0
2022/4/2 17:30,0,0
2022/4/2 17:40,0,0
2022/4/2 17:50,0,0
2022/4/2 18:00,0,0
2022/4/2 18:10,0,0
2022/4/2 18:20,0,0
2022/4/2 18:30,0,0
2022/4/2 18:40,0,0
2022/4/2 18:50,0,0
2022/4/2 19:00,0,0
2022/4/2 19:10,0.01,0
2022/4/2 19:20,0,0
2022/4/2 19:30,0,0
2022/4/2 19:40,0,0
2022/4/2 19:50,0,0
2022/4/2 20:00,0,0
2022/4/2 20:10,0,0
2022/4/2 20:20,0,0
2022/4/2 20:30,0,0
2022/4/2 20:40,0,0
2022/4/2 20:50,0,0
2022/4/2 21:00,0,0
2022/4/2 21:10,0,0
2022/4/2 21:20,0,0
2022/4/2 21:30,0,0
2022/4/2 21:40,0,0
2022/4/2 21:50,0,0
2022/4/2 22:00,0,0
2022/4/2 22:10,0,0
2022/4/2 22:20,0,0
2022/4/2 22:30,0,0
2022/4/2 22:40,0,0
2022/4/2 22:50,0,0
2022/4/2 23:00,0,0
2022/4/2 23:10,0,0
2022/4/2 23:20,0,0
2022/4/2 23:30,0,0
2022/4/2 23:40,0,0
2022/4/2 23:50,0,0
2022/4/3 0:00,0,0
2022/4/3 0:10,0,0
2022/4/3 0:20,0,0
2022/4/3 0:30,0,0
2022/4/3 0:40,0,0
2022/4/3 0:50,0,0
2022/4/3 1:00,0,0
2022/4/3 1:10,0,0
2022/4/3 1:20,0,0
2022/4/3 1:30,0,0
2022/4/3 1:40,0,0
2022/4/3 1:50,0,0
2022/4/3 2:00,0,0
2022/4/3 2:10,0,0
2022/4/3 2:20,0,0
2022/4/3 2:30,0,0
2022/4/3 2:40,0,0
2022/4/3 2:50,0,0
2022/4/3 3:00,0,0
2022/4/3 3:10,0,0
2022/4/3 3:20,0,0
2022/4/3 3:30,0,0
2022/4/3 3:40,0,0
2022/4/3 3:50,0,0
2022/4/3 4:00,0.22,0
2022/4/3 4:10,0.29,0
2022/4/3 4:20,0.26,0
2022/4/3 4:30,0.26,0
2022/4/3 4:40,0.27,0
2022/4/3 4:50,0.28,0
2022/4/3 5:00,0.04,0
2022/4/3 5:10,0,0
2022/4/3 5:20,0,0
2022/4/3 5:30,0,0
2022/4/3 5:40,0,0
2022/4/3 5:50,0,0
2022/4/3 6:00,0,0
2022/4/3 6:10,0,0
2022/4/3 6:20,0,0
2022/4/3 6:30,0,0
2022/4/3 6:40,0,0
2022/4/3 6:50,0,0
2022/4/3 7:00,0,0
2022/4/3 7:10,0,0
2022/4/3 7:20,0,0
2022/4/3 7:30,0,0
2022/4/3 7:40,0,0
2022/4/3 7:50,0,0
2022/4/3 8:00,0,0
2022/4/3 8:10,0,0
2022/4/3 8:20,0,0
2022/4/3 8:30,0,0
2022/4/3 8:40,0.01,0
2022/4/3 8:50,0.17,0
2022/4/3 9:00,0.24,0
2022/4/3 9:10,0.24,0
2022/4/3 9:20,0.25,0
2022/4/3 9:30,0.25,0
2022/4/3 9:40,0.23,0
2022/4/3 9:50,0.01,0
2022/4/3 10:00,0,0
2022/4/3 10:10,0.01,0
2022/4/3 10:20,0,0
2022/4/3 10:30,0.01,0
2022/4/3 10:40,0,0
2022/4/3 10:50,0.01,0
2022/4/3 11:00,0,0
2022/4/3 11:10,0.01,0
2022/4/3 11:20,0.01,0
2022/4/3 11:30,0,0
2022/4/3 11:40,0.01,0
2022/4/3 11:50,0,0
2022/4/3 12:00,0.01,0
2022/4/3 12:10,0,0
2022/4/3 12:20,0.01,0
2022/4/3 12:30,0,0
2022/4/3 12:40,0.01,0
2022/4/3 12:50,0,0
2022/4/3 13:00,0.01,0
2022/4/3 13:10,0.01,0
2022/4/3 13:20,0,0
2022/4/3 13:30,0.01,0
2022/4/3 13:40,0,0
2022/4/3 13:50,0.01,0
2022/4/3 14:00,0,0
2022/4/3 14:10,0.01,0
2022/4/3 14:20,0,0
2022/4/3 14:30,0.01,0
2022/4/3 14:40,0,0
2022/4/3 14:50,0.01,0
2022/4/3 15:00,0.01,0
2022/4/3 15:10,0,0
2022/4/3 15:20,0.01,0
2022/4/3 15:30,0,0
2022/4/3 15:40,0.01,0
2022/4/3 15:50,0,0
2022/4/3 16:00,0,0
2022/4/3 16:10,0,0
2022/4/3 16:20,0,0
2022/4/3 16:30,0,0
2022/4/3 16:40,0,0
2022/4/3 16:50,0,0
2022/4/3 17:00,0,0
2022/4/3 17:10,0,0
2022/4/3 17:20,0,0
2022/4/3 17:30,0,0
2022/4/3 17:40,0,0
2022/4/3 17:50,0,0
2022/4/3 18:00,0,0
2022/4/3 18:10,0,0
2022/4/3 18:20,0,0
2022/4/3 18:30,0,0
2022/4/3 18:40,0,0
2022/4/3 18:50,0,0
2022/4/3 19:00,0,0
2022/4/3 19:10,0,0
2022/4/3 19:20,0.01,0
2022/4/3 19:30,0,0
2022/4/3 19:40,0,0
2022/4/3 19:50,0,0
2022/4/3 20:00,0,0
2022/4/3 20:10,0,0
2022/4/3 20:20,0,0
2022/4/3 20:30,0,0
2022/4/3 20:40,0,0
2022/4/3 20:50,0,0
2022/4/3 21:00,0,0
2022/4/3 21:10,0,0
2022/4/3 21:20,0,0
2022/4/3 21:30,0,0
2022/4/3 21:40,0,0
2022/4/3 21:50,0,0
2022/4/3 22:00,0,0
2022/4/3 22:10,0,0
2022/4/3 22:20,0,0
2022/4/3 22:30,0,0
2022/4/3 22:40,0,0
2022/4/3 22:50,0,0
2022/4/3 23:00,0,0
2022/4/3 23:10,0,0
2022/4/3 23:20,0,0
2022/4/3 23:30,0,0
2022/4/3 23:40,0,0
2022/4/3 23:50,0,0
2022/4/4 0:00,0,0
2022/4/4 0:10,0,0
2022/4/4 0:20,0,0
2022/4/4 0:30,0,0
2022/4/4 0:40,0,0
2022/4/4 0:50,0,0
2022/4/4 1:00,0,0
2022/4/4 1:10,0,0
2022/4/4 1:20,0,0
2022/4/4 1:30,0,0
2022/4/4 1:40,0,0
2022/4/4 1:50,0,0
2022/4/4 2:00,0,0
2022/4/4 2:10,0,0
2022/4/4 2:20,0,0
2022/4/4 2:30,0,0
2022/4/4 2:40,0,0
2022/4/4 2:50,0,0
2022/4/4 3:00,0,0
2022/4/4 3:10,0,0
2022/4/4 3:20,0,0
2022/4/4 3:30,0,0
2022/4/4 3:40,0,0
2022/4/4 3:50,0,0
2022/4/4 4:00,0,0
2022/4/4 4:10,0,0
2022/4/4 4:20,0,0
2022/4/4 4:30,0,0
2022/4/4 4:40,0,0
2022/4/4 4:50,0,0
2022/4/4 5:00,0,0.1
2022/4/4 5:10,0,0.1
2022/4/4 5:20,0,0.11
2022/4/4 5:30,0,0.1
2022/4/4 5:40,0,0.1
2022/4/4 5:50,0,0.09
2022/4/4 6:00,0,0
2022/4/4 6:10,0,0
2022/4/4 6:20,0,0
2022/4/4 6:30,0,0
2022/4/4 6:40,0,0
2022/4/4 6:50,0,0
2022/4/4 7:00,0,0
2022/4/4 7:10,0,0
2022/4/4 7:20,0,0
2022/4/4 7:30,0,0
2022/4/4 7:40,0,0
2022/4/4 7:50,0,0.05
2022/4/4 8:00,0,0
2022/4/4 8:10,0,0
2022/4/4 8:20,0,0
2022/4/4 8:30,0.01,0
2022/4/4 8:40,0,0
2022/4/4 8:50,0,0
2022/4/4 9:00,0.01,0
2022/4/4 9:10,0,0
2022/4/4 9:20,0.01,0
2022/4/4 9:30,0,0
2022/4/4 9:40,0.01,0
2022/4/4 9:50,0.01,0
2022/4/4 10:00,0,0.06
2022/4/4 10:10,0.01,0
2022/4/4 10:20,0,0
2022/4/4 10:30,0.01,0
2022/4/4 10:40,0,0
2022/4/4 10:50,0.01,0
2022/4/4 11:00,0,0
2022/4/4 11:10,0.01,0
2022/4/4 11:20,0,0
2022/4/4 11:30,0.01,0
2022/4/4 11:40,0,0
2022/4/4 11:50,0.01,0
2022/4/4 12:00,0.01,0.06
2022/4/4 12:10,0,0
2022/4/4 12:20,0.01,0
2022/4/4 12:30,0,0
2022/4/4 12:40,0.01,0
2022/4/4 12:50,0,0
2022/4/4 13:00,0.01,0
2022/4/4 13:10,0,0
2022/4/4 13:20,0.01,0
2022/4/4 13:30,0,0
2022/4/4 13:40,0.01,0
2022/4/4 13:50,0,0
2022/4/4 14:00,0.01,0
2022/4/4 14:10,0,0
2022/4/4 14:20,0.01,0
2022/4/4 14:30,0.01,0
2022/4/4 14:40,0,0
2022/4/4 14:50,0.01,0
2022/4/4 15:00,0,0
2022/4/4 15:10,0.01,0
2022/4/4 15:20,0,0
2022/4/4 15:30,0.01,0
2022/4/4 15:40,0,0
2022/4/4 15:50,0.01,0
2022/4/4 16:00,0,0
2022/4/4 16:10,0,0
2022/4/4 16:20,0,0
2022/4/4 16:30,0,0
2022/4/4 16:40,0,0
2022/4/4 16:50,0,0
2022/4/4 17:00,0,0
2022/4/4 17:10,0,0
2022/4/4 17:20,0,0
2022/4/4 17:30,0,0
2022/4/4 17:40,0,0
2022/4/4 17:50,0,0
2022/4/4 18:00,0,0
2022/4/4 18:10,0,0
2022/4/4 18:20,0,0
2022/4/4 18:30,0,0
2022/4/4 18:40,0,0
2022/4/4 18:50,0,0
2022/4/4 19:00,0,0
2022/4/4 19:10,0,0
2022/4/4 19:20,0,0
2022/4/4 19:30,0,0
2022/4/4 19:40,0,0
2022/4/4 19:50,0,0
2022/4/4 20:00,0,0
2022/4/4 20:10,0,0
2022/4/4 20:20,0,0
2022/4/4 20:30,0,0
2022/4/4 20:40,0,0
2022/4/4 20:50,0,0
2022/4/4 21:00,0,0
2022/4/4 21:10,0,0
2022/4/4 21:20,0,0
2022/4/4 21:30,0,0
2022/4/4 21:40,0.01,0
2022/4/4 21:50,0,0
2022/4/4 22:00,0,0
2022/4/4 22:10,0,0
2022/4/4 22:20,0,0
2022/4/4 22:30,0,0
2022/4/4 22:40,0,0
2022/4/4 22:50,0,0
2022/4/4 23:00,0,0
2022/4/4 23:10,0,0
2022/4/4 23:20,0,0
2022/4/4 23:30,0,0
2022/4/4 23:40,0,0
2022/4/4 23:50,0,0
2022/4/5 0:00,0,0
2022/4/5 0:10,0,0
2022/4/5 0:20,0,0
2022/4/5 0:30,0,0
2022/4/5 0:40,0,0
2022/4/5 0:50,0,0
2022/4/5 1:00,0,0
2022/4/5 1:10,0,0
2022/4/5 1:20,0,0
2022/4/5 1:30,0,0
2022/4/5 1:40,0,0
2022/4/5 1:50,0,0
2022/4/5 2:00,0,0
2022/4/5 2:10,0,0
2022/4/5 2:20,0,0
2022/4/5 2:30,0,0
2022/4/5 2:40,0,0
2022/4/5 2:50,0,0
2022/4/5 3:00,0,0
2022/4/5 3:10,0,0
2022/4/5 3:20,0,0
2022/4/5 3:30,0,0
2022/4/5 3:40,0,0
2022/4/5 3:50,0,0
2022/4/5 4:00,0,0
2022/4/5 4:10,0,0
2022/4/5 4:20,0,0
2022/4/5 4:30,0,0
2022/4/5 4:40,0,0
2022/4/5 4:50,0,0
2022/4/5 5:00,0,0.1
2022/4/5 5:10,0,0.11
2022/4/5 5:20,0,0.1
2022/4/5 5:30,0,0.09
2022/4/5 5:40,0,0
2022/4/5 5:50,0,0
2022/4/5 6:00,0,0
2022/4/5 6:10,0,0
2022/4/5 6:20,0,0
2022/4/5 6:30,0,0
2022/4/5 6:40,0,0
2022/4/5 6:50,0,0
2022/4/5 7:00,0,0
2022/4/5 7:10,0,0
2022/4/5 7:20,0.08,0
2022/4/5 7:30,0.3,0.03
2022/4/5 7:40,0.3,0.02
2022/4/5 7:50,0.25,0
2022/4/5 8:00,0.29,0
2022/4/5 8:10,0.26,0
2022/4/5 8:20,0.14,0
2022/4/5 8:30,0.01,0
2022/4/5 8:40,0,0
2022/4/5 8:50,0.01,0
2022/4/5 9:00,0,0
2022/4/5 9:10,0.01,0.07
2022/4/5 9:20,0,0
2022/4/5 9:30,0.01,0
2022/4/5 9:40,0,0
2022/4/5 9:50,0.01,0
2022/4/5 10:00,0,0
2022/4/5 10:10,0.01,0
2022/4/5 10:20,0.01,0
2022/4/5 10:30,0,0
2022/4/5 10:40,0.01,0
2022/4/5 10:50,0,0
2022/4/5 11:00,0.01,0
2022/4/5 11:10,0,0.06
2022/4/5 11:20,0.01,0
2022/4/5 11:30,0,0
2022/4/5 11:40,0.01,0
2022/4/5 11:50,0,0
2022/4/5 12:00,0.01,0
2022/4/5 12:10,0,0
2022/4/5 12:20,0.01,0
2022/4/5 12:30,0.01,0
2022/4/5 12:40,0,0
2022/4/5 12:50,0.01,0
2022/4/5 13:00,0,0
2022/4/5 13:10,0.01,0
2022/4/5 13:20,0,0
2022/4/5 13:30,0.01,0
2022/4/5 13:40,0,0
2022/4/5 13:50,0.01,0
2022/4/5 14:00,0,0
2022/4/5 14:10,0.01,0
2022/4/5 14:20,0,0
2022/4/5 14:30,0.01,0
2022/4/5 14:40,0,0
2022/4/5 14:50,0.01,0
2022/4/5 15:00,0,0
2022/4/5 15:10,0,0
2022/4/5 15:20,0,0
2022/4/5 15:30,0,0
2022/4/5 15:40,0,0
2022/4/5 15:50,0,0
2022/4/5 16:00,0,0
2022/4/5 16:10,0,0
2022/4/5 16:20,0,0
2022/4/5 16:30,0,0
2022/4/5 16:40,0,0
2022/4/5 16:50,0,0
2022/4/5 17:00,0,0
2022/4/5 17:10,0,0
2022/4/5 17:20,0,0
2022/4/5 17:30,0,0
2022/4/5 17:40,0,0
2022/4/5 17:50,0,0
2022/4/5 18:00,0,0
2022/4/5 18:10,0,0
2022/4/5 18:20,0,0
2022/4/5 18:30,0,0
2022/4/5 18:40,0,0
2022/4/5 18:50,0,0
2022/4/5 19:00,0,0
2022/4/5 19:10,0,0
2022/4/5 19:20,0,0
2022/4/5 19:30,0,0
2022/4/5 19:40,0,0
2022/4/5 19:50,0,0
2022/4/5 20:00,0,0
2022/4/5 20:10,0,0
2022/4/5 20:20,0,0
2022/4/5 20:30,0,0
2022/4/5 20:40,0,0
2022/4/5 20:50,0,0
2022/4/5 21:00,0,0
2022/4/5 21:10,0,0
2022/4/5 21:20,0,0
2022/4/5 21:30,0,0
2022/4/5 21:40,0,0
2022/4/5 21:50,0,0
2022/4/5 22:00,0,0
2022/4/5 22:10,0,0
2022/4/5 22:20,0,0
2022/4/5 22:30,0,0
2022/4/5 22:40,0,0
2022/4/5 22:50,0,0
2022/4/5 23:00,0,0
2022/4/5 23:10,0,0
2022/4/5 23:20,0.01,0
2022/4/5 23:30,0,0
2022/4/5 23:40,0,0
2022/4/5 23:50,0,0
2022/4/6 0:00,0,0
2022/4/6 0:10,0,0
2022/4/6 0:20,0,0
2022/4/6 0:30,0,0
2022/4/6 0:40,0,0
2022/4/6 0:50,0,0
2022/4/6 1:00,0,0
2022/4/6 1:10,0,0
2022/4/6 1:20,0,0
2022/4/6 1:30,0,0
2022/4/6 1:40,0,0
2022/4/6 1:50,0,0
2022/4/6 2:00,0,0
2022/4/6 2:10,0,0
2022/4/6 2:20,0,0
2022/4/6 2:30,0,0
2022/4/6 2:40,0,0
2022/4/6 2:50,0,0
2022/4/6 3:00,0,0
2022/4/6 3:10,0,0
2022/4/6 3:20,0,0
2022/4/6 3:30,0,0
2022/4/6 3:40,0.01,0
2022/4/6 3:50,0,0
2022/4/6 4:00,0,0
2022/4/6 4:10,0,0
2022/4/6 4:20,0,0
2022/4/6 4:30,0,0
2022/4/6 4:40,0,0
2022/4/6 4:50,0,0
2022/4/6 5:00,0,0.1
2022/4/6 5:10,0,0.1
2022/4/6 5:20,0,0.1
2022/4/6 5:30,0,0.07
2022/4/6 5:40,0,0
2022/4/6 5:50,0,0
2022/4/6 6:00,0.01,0
2022/4/6 6:10,0,0
2022/4/6 6:20,0,0
2022/4/6 6:30,0,0
2022/4/6 6:40,0,0
2022/4/6 6:50,0,0
2022/4/6 7:00,0,0
2022/4/6 7:10,0,0
2022/4/6 7:20,0,0
2022/4/6 7:30,0,0.04
2022/4/6 7:40,0,0.01
2022/4/6 7:50,0,0
2022/4/6 8:00,0,0
2022/4/6 8:10,0.11,0
2022/4/6 8:20,0.26,0
2022/4/6 8:30,0.23,0.05
2022/4/6 8:40,0.11,0
2022/4/6 8:50,0.01,0
2022/4/6 9:00,0,0
2022/4/6 9:10,0.01,0
2022/4/6 9:20,0,0
2022/4/6 9:30,0.01,0
2022/4/6 9:40,0,0.03
2022/4/6 9:50,0.01,0.03
2022/4/6 10:00,0,0
2022/4/6 10:10,0.01,0
2022/4/6 10:20,0,0
2022/4/6 10:30,0.01,0
2022/4/6 10:40,0,0
2022/4/6 10:50,0.01,0
2022/4/6 11:00,0,0
2022/4/6 11:10,0.01,0
2022/4/6 11:20,0,0
2022/4/6 11:30,0.01,0
2022/4/6 11:40,0,0.05
2022/4/6 11:50,0.01,0
2022/4/6 12:00,0.01,0
2022/4/6 12:10,0,0
2022/4/6 12:20,0.01,0
2022/4/6 12:30,0,0.07
2022/4/6 12:40,0.01,0
2022/4/6 12:50,0,0
2022/4/6 13:00,0.01,0
2022/4/6 13:10,0,0
2022/4/6 13:20,0.01,0
2022/4/6 13:30,0,0
2022/4/6 13:40,0.01,0
2022/4/6 13:50,0.01,0
2022/4/6 14:00,0,0
2022/4/6 14:10,0.01,0
2022/4/6 14:20,0,0
2022/4/6 14:30,0.01,0
2022/4/6 14:40,0,0
2022/4/6 14:50,0.01,0
2022/4/6 15:00,0,0
2022/4/6 15:10,0.01,0
2022/4/6 15:20,0,0
2022/4/6 15:30,0.01,0
2022/4/6 15:40,0,0
2022/4/6 15:50,0,0
2022/4/6 16:00,0,0
2022/4/6 16:10,0,0
2022/4/6 16:20,0,0
2022/4/6 16:30,0,0
2022/4/6 16:40,0,0
2022/4/6 16:50,0,0
2022/4/6 17:00,0,0
2022/4/6 17:10,0,0
2022/4/6 17:20,0,0
2022/4/6 17:30,0,0
2022/4/6 17:40,0,0
2022/4/6 17:50,0,0
2022/4/6 18:00,0,0
2022/4/6 18:10,0,0
2022/4/6 18:20,0,0
2022/4/6 18:30,0,0
2022/4/6 18:40,0,0
2022/4/6 18:50,0,0
2022/4/6 19:00,0,0
2022/4/6 19:10,0,0
2022/4/6 19:20,0,0
2022/4/6 19:30,0,0
2022/4/6 19:40,0,0
2022/4/6 19:50,0,0
2022/4/6 20:00,0,0
2022/4/6 20:10,0,0
2022/4/6 20:20,0,0
2022/4/6 20:30,0,0
2022/4/6 20:40,0,0
2022/4/6 20:50,0,0
2022/4/6 21:00,0,0
2022/4/6 21:10,0,0
2022/4/6 21:20,0,0
2022/4/6 21:30,0,0
2022/4/6 21:40,0,0
2022/4/6 21:50,0,0
2022/4/6 22:00,0,0
2022/4/6 22:10,0,0
2022/4/6 22:20,0,0
2022/4/6 22:30,0,0
2022/4/6 22:40,0,0
2022/4/6 22:50,0,0
2022/4/6 23:00,0.01,0
2022/4/6 23:10,0,0
2022/4/6 23:20,0,0
2022/4/6 23:30,0,0
2022/4/6 23:40,0,0
2022/4/6 23:50,0,0
2022/4/7 0:00,0,0
2022/4/7 0:10,0,0
2022/4/7 0:20,0,0
2022/4/7 0:30,0,0
2022/4/7 0:40,0,0
2022/4/7 0:50,0,0
2022/4/7 1:00,0,0
2022/4/7 1:10,0,0
2022/4/7 1:20,0,0
2022/4/7 1:30,0,0
2022/4/7 1:40,0,0
2022/4/7 1:50,0,0
2022/4/7 2:00,0,0
2022/4/7 2:10,0,0
2022/4/7 2:20,0,0
2022/4/7 2:30,0,0
2022/4/7 2:40,0,0
2022/4/7 2:50,0,0
2022/4/7 3:00,0,0
2022/4/7 3:10,0,0
2022/4/7 3:20,0,0
2022/4/7 3:30,0,0
2022/4/7 3:40,0,0
2022/4/7 3:50,0,0
2022/4/7 4:00,0,0
2022/4/7 4:10,0,0
2022/4/7 4:20,0,0
2022/4/7 4:30,0,0
2022/4/7 4:40,0,0
2022/4/7 4:50,0,0
2022/4/7 5:00,0,0.1
2022/4/7 5:10,0,0.1
2022/4/7 5:20,0,0.11
2022/4/7 5:30,0,0.08
2022/4/7 5:40,0,0
2022/4/7 5:50,0,0
2022/4/7 6:00,0,0
2022/4/7 6:10,0,0
2022/4/7 6:20,0,0
2022/4/7 6:30,0,0
2022/4/7 6:40,0,0
2022/4/7 6:50,0,0
2022/4/7 7:00,0,0
2022/4/7 7:10,0,0
2022/4/7 7:20,0,0
2022/4/7 7:30,0,0
2022/4/7 7:40,0,0
2022/4/7 7:50,0.08,0.04
2022/4/7 8:00,0.27,0.01
2022/4/7 8:10,0.25,0
2022/4/7 8:20,0.23,0
2022/4/7 8:30,0.24,0
2022/4/7 8:40,0.24,0
2022/4/7 8:50,0.11,0
2022/4/7 9:00,0.01,0
2022/4/7 9:10,0,0
2022/4/7 9:20,0.01,0.03
2022/4/7 9:30,0,0.03
2022/4/7 9:40,0.01,0
2022/4/7 9:50,0,0
2022/4/7 10:00,0.01,0
2022/4/7 10:10,0,0
2022/4/7 10:20,0.01,0
2022/4/7 10:30,0,0
2022/4/7 10:40,0.01,0
2022/4/7 10:50,0,0
2022/4/7 11:00,0.01,0
2022/4/7 11:10,0,0.02
2022/4/7 11:20,0.01,0.04
2022/4/7 11:30,0.01,0
2022/4/7 11:40,0,0
2022/4/7 11:50,0.01,0
2022/4/7 12:00,0,0
2022/4/7 12:10,0.01,0
2022/4/7 12:20,0,0
2022/4/7 12:30,0.01,0
2022/4/7 12:40,0,0
2022/4/7 12:50,0.01,0
2022/4/7 13:00,0,0
2022/4/7 13:10,0.01,0
2022/4/7 13:20,0,0
2022/4/7 13:30,0.01,0
2022/4/7 13:40,0.01,0
2022/4/7 13:50,0,0
2022/4/7 14:00,0.01,0
2022/4/7 14:10,0,0
2022/4/7 14:20,0.01,0
2022/4/7 14:30,0,0
2022/4/7 14:40,0.01,0
2022/4/7 14:50,0,0
2022/4/7 15:00,0.01,0
2022/4/7 15:10,0,0
2022/4/7 15:20,0.01,0
2022/4/7 15:30,0,0
2022/4/7 15:40,0,0
2022/4/7 15:50,0,0
2022/4/7 16:00,0,0
2022/4/7 16:10,0,0
2022/4/7 16:20,0,0
2022/4/7 16:30,0,0
2022/4/7 16:40,0,0
2022/4/7 16:50,0,0
2022/4/7 17:00,0,0
2022/4/7 17:10,0,0
2022/4/7 17:20,0,0
2022/4/7 17:30,0,0
2022/4/7 17:40,0,0
2022/4/7 17:50,0,0
2022/4/7 18:00,0,0
2022/4/7 18:10,0,0
2022/4/7 18:20,0,0
2022/4/7 18:30,0,0
2022/4/7 18:40,0,0
2022/4/7 18:50,0,0
2022/4/7 19:00,0,0
2022/4/7 19:10,0,0
2022/4/7 19:20,0,0
2022/4/7 19:30,0,0
2022/4/7 19:40,0,0
2022/4/7 19:50,0,0
2022/4/7 20:00,0,0
2022/4/7 20:10,0,0
2022/4/7 20:20,0,0
2022/4/7 20:30,0,0
2022/4/7 20:40,0,0
2022/4/7 20:50,0,0
2022/4/7 21:00,0,0
2022/4/7 21:10,0,0
2022/4/7 21:20,0,0
2022/4/7 21:30,0,0
2022/4/7 21:40,0,0
2022/4/7 21:50,0,0
2022/4/7 22:00,0,0
2022/4/7 22:10,0,0
2022/4/7 22:20,0,0
2022/4/7 22:30,0,0
2022/4/7 22:40,0,0
2022/4/7 22:50,0,0
2022/4/7 23:00,0,0
2022/4/7 23:10,0,0
2022/4/7 23:20,0,0
2022/4/7 23:30,0,0
2022/4/7 23:40,0,0
2022/4/7 23:50,0.01,0
2022/4/8 0:00,0,0
2022/4/8 0:10,0,0
2022/4/8 0:20,0,0
2022/4/8 0:30,0,0
2022/4/8 0:40,0,0
2022/4/8 0:50,0,0
2022/4/8 1:00,0,0
2022/4/8 1:10,0,0
2022/4/8 1:20,0,0
2022/4/8 1:30,0,0
2022/4/8 1:40,0,0
2022/4/8 1:50,0,0
2022/4/8 2:00,0,0
2022/4/8 2:10,0.01,0
2022/4/8 2:20,0,0
2022/4/8 2:30,0,0
2022/4/8 2:40,0,0
2022/4/8 2:50,0,0
2022/4/8 3:00,0,0
2022/4/8 3:10,0,0
2022/4/8 3:20,0,0
2022/4/8 3:30,0,0
2022/4/8 3:40,0,0
2022/4/8 3:50,0,0
2022/4/8 4:00,0,0
2022/4/8 4:10,0,0
2022/4/8 4:20,0,0
2022/4/8 4:30,0,0
2022/4/8 4:40,0,0
2022/4/8 4:50,0,0
2022/4/8 5:00,0,0.1
2022/4/8 5:10,0,0.1
2022/4/8 5:20,0,0.11
2022/4/8 5:30,0,0.08
2022/4/8 5:40,0,0
2022/4/8 5:50,0,0
2022/4/8 6:00,0,0
2022/4/8 6:10,0,0
2022/4/8 6:20,0,0
2022/4/8 6:30,0,0
2022/4/8 6:40,0,0
2022/4/8 6:50,0,0
2022/4/8 7:00,0,0
2022/4/8 7:10,0,0
2022/4/8 7:20,0,0.07
2022/4/8 7:30,0,0
2022/4/8 7:40,0,0
2022/4/8 7:50,0,0
2022/4/8 8:00,0,0
2022/4/8 8:10,0,0
2022/4/8 8:20,0,0
2022/4/8 8:30,0,0
2022/4/8 8:40,0,0
2022/4/8 8:50,0.01,0
2022/4/8 9:00,0,0
2022/4/8 9:10,0.01,0.03
2022/4/8 9:20,0,0.02
2022/4/8 9:30,0.01,0
2022/4/8 9:40,0,0
2022/4/8 9:50,0.08,0
2022/4/8 10:00,0.01,0
2022/4/8 10:10,0.01,0
2022/4/8 10:20,0.01,0
2022/4/8 10:30,0,0
2022/4/8 10:40,0.01,0.07
2022/4/8 10:50,0,0
2022/4/8 11:00,0.01,0
2022/4/8 11:10,0,0
2022/4/8 11:20,0.01,0
2022/4/8 11:30,0,0
2022/4/8 11:40,0,0
2022/4/8 11:50,0.04,0
2022/4/8 12:00,0.21,0
2022/4/8 12:10,0.03,0
2022/4/8 12:20,0,0
2022/4/8 12:30,0.01,0.03
2022/4/8 12:40,0,0.02
2022/4/8 12:50,0.01,0
2022/4/8 13:00,0,0
2022/4/8 13:10,0.01,0
2022/4/8 13:20,0,0
2022/4/8 13:30,0.01,0
2022/4/8 13:40,0,0
2022/4/8 13:50,0.01,0
2022/4/8 14:00,0,0
2022/4/8 14:10,0.01,0
2022/4/8 14:20,0.01,0
2022/4/8 14:30,0,0
2022/4/8 14:40,0.01,0
2022/4/8 14:50,0,0
2022/4/8 15:00,0.01,0
2022/4/8 15:10,0,0
2022/4/8 15:20,0.01,0
2022/4/8 15:30,0,0
2022/4/8 15:40,0.01,0
2022/4/8 15:50,0,0
2022/4/8 16:00,0.01,0
2022/4/8 16:10,0,0
2022/4/8 16:20,0,0
2022/4/8 16:30,0,0
2022/4/8 16:40,0,0
2022/4/8 16:50,0,0
2022/4/8 17:00,0,0
2022/4/8 17:10,0,0
2022/4/8 17:20,0,0
2022/4/8 17:30,0,0
2022/4/8 17:40,0,0
2022/4/8 17:50,0,0
2022/4/8 18:00,0,0
2022/4/8 18:10,0,0
2022/4/8 18:20,0,0
2022/4/8 18:30,0,0
2022/4/8 18:40,0,0
2022/4/8 18:50,0,0
2022/4/8 19:00,0,0
2022/4/8 19:10,0,0
2022/4/8 19:20,0,0
2022/4/8 19:30,0,0
2022/4/8 19:40,0,0
2022/4/8 19:50,0,0
2022/4/8 20:00,0,0
2022/4/8 20:10,0,0
2022/4/8 20:20,0,0
2022/4/8 20:30,0,0
2022/4/8 20:40,0,0
2022/4/8 20:50,0,0
2022/4/8 21:00,0,0
2022/4/8 21:10,0,0
2022/4/8 21:20,0,0
2022/4/8 21:30,0,0
2022/4/8 21:40,0,0
2022/4/8 21:50,0,0
2022/4/8 22:00,0,0
2022/4/8 22:10,0,0
2022/4/8 22:20,0,0
2022/4/8 22:30,0,0
2022/4/8 22:40,0,0
2022/4/8 22:50,0,0
2022/4/8 23:00,0,0
2022/4/8 23:10,0,0
2022/4/8 23:20,0,0
2022/4/8 23:30,0,0
2022/4/8 23:40,0,0
2022/4/8 23:50,0,0
2022/4/9 0:00,0,0
2022/4/9 0:10,0,0
2022/4/9 0:20,0,0
2022/4/9 0:30,0,0
2022/4/9 0:40,0,0
2022/4/9 0:50,0,0
2022/4/9 1:00,0,0
2022/4/9 1:10,0.01,0
2022/4/9 1:20,0,0
2022/4/9 1:30,0,0
2022/4/9 1:40,0,0
2022/4/9 1:50,0,0
2022/4/9 2:00,0,0
2022/4/9 2:10,0,0
2022/4/9 2:20,0,0
2022/4/9 2:30,0,0
2022/4/9 2:40,0,0
2022/4/9 2:50,0.01,0
2022/4/9 3:00,0,0
2022/4/9 3:10,0,0
2022/4/9 3:20,0,0
2022/4/9 3:30,0,0
2022/4/9 3:40,0,0
2022/4/9 3:50,0,0
2022/4/9 4:00,0,0